Wetterdaten: Sonntag, 17.05.2015
Datum Zeit Temp. A. Feuchte A. Luftdruck Regen Wind Richtung Richtung Sonnenschein ET UV Solar Taupunkt Windchill Windben Empfang
17.05.2015 00:00 14,2 C 65 % 1022,0 hPa 0,0 l/m 2,2 km/h (1 Bft) N-NW 348 0 min 0,000 mm 0,0 UV-I 0 W/m 7,7 C 14,2 C 4,0 km/h (1 Bft) 0,00 %
17.05.2015 00:15 14,2 C 65 % 1021,8 hPa 0,0 l/m 0,4 km/h (0 Bft) S-SW 194 0 min 0,000 mm 0,0 UV-I 0 W/m 7,7 C 14,2 C 4,0 km/h (1 Bft) 0,00 %
17.05.2015 00:30 14,2 C 66 % 1022,0 hPa 0,0 l/m 0,0 km/h (0 Bft) S-SW 200 0 min 0,000 mm 0,0 UV-I 0 W/m 7,9 C 14,2 C 0,0 km/h (0 Bft) 0,00 %
17.05.2015 00:45 14,2 C 66 % 1022,1 hPa 0,0 l/m 0,0 km/h (0 Bft) W-SW 252 0 min 0,000 mm 0,0 UV-I 0 W/m 7,9 C 14,2 C 0,0 km/h (0 Bft) 0,00 %
17.05.2015 01:00 14,5 C 64 % 1021,9 hPa 0,0 l/m 0,7 km/h (0 Bft) W-SW 252 0 min 0,000 mm 0,0 UV-I 0 W/m 7,8 C 14,5 C 4,0 km/h (1 Bft) 0,00 %
17.05.2015 01:15 14,3 C 66 % 1021,9 hPa 0,0 l/m 0,0 km/h (0 Bft) S-SW 197 0 min 0,000 mm 0,0 UV-I 0 W/m 8,0 C 14,3 C 0,0 km/h (0 Bft) 0,00 %
17.05.2015 01:30 14,1 C 67 % 1021,9 hPa 0,0 l/m 0,4 km/h (0 Bft) W-SW 256 0 min 0,000 mm 0,0 UV-I 0 W/m 8,1 C 14,1 C 4,0 km/h (1 Bft) 0,00 %
17.05.2015 01:45 14,1 C 68 % 1021,9 hPa 0,0 l/m 4,3 km/h (1 Bft) W-SW 249 0 min 0,000 mm 0,0 UV-I 0 W/m 8,3 C 14,1 C 7,9 km/h (2 Bft) 0,00 %
17.05.2015 02:00 14,1 C 68 % 1021,9 hPa 0,0 l/m 0,7 km/h (0 Bft) O-NO 73 0 min 0,000 mm 0,0 UV-I 0 W/m 8,3 C 14,1 C 4,0 km/h (1 Bft) 0,00 %
17.05.2015 02:15 14,0 C 69 % 1022,0 hPa 0,0 l/m 0,0 km/h (0 Bft) W-SW 255 0 min 0,000 mm 0,0 UV-I 0 W/m 8,4 C 14,0 C 0,0 km/h (0 Bft) 0,00 %
17.05.2015 02:30 13,9 C 69 % 1022,1 hPa 0,0 l/m 1,4 km/h (1 Bft) S 191 0 min 0,000 mm 0,0 UV-I 0 W/m 8,3 C 13,9 C 4,0 km/h (1 Bft) 0,00 %
17.05.2015 02:45 14,2 C 68 % 1022,2 hPa 0,0 l/m 7,9 km/h (2 Bft) W-SW 256 0 min 0,000 mm 0,0 UV-I 0 W/m 8,4 C 13,3 C 11,9 km/h (2 Bft) 0,00 %
17.05.2015 03:00 14,0 C 70 % 1022,2 hPa 0,0 l/m 0,0 km/h (0 Bft) O 90 0 min 0,000 mm 0,0 UV-I 0 W/m 8,6 C 14,0 C 0,0 km/h (0 Bft) 0,00 %
17.05.2015 03:15 13,9 C 70 % 1022,2 hPa 0,0 l/m 5,4 km/h (1 Bft) SW 217 0 min 0,000 mm 0,0 UV-I 0 W/m 8,5 C 13,9 C 11,9 km/h (2 Bft) 0,00 %
17.05.2015 03:30 14,1 C 66 % 1022,3 hPa 0,0 l/m 1,8 km/h (1 Bft) SW 236 0 min 0,000 mm 0,0 UV-I 0 W/m 7,8 C 14,1 C 4,0 km/h (1 Bft) 0,00 %
17.05.2015 03:45 14,1 C 65 % 1022,3 hPa 0,0 l/m 0,0 km/h (0 Bft) SW 224 0 min 0,000 mm 0,0 UV-I 0 W/m 7,6 C 14,1 C 0,0 km/h (0 Bft) 0,00 %
17.05.2015 04:00 14,0 C 66 % 1022,5 hPa 0,0 l/m 1,8 km/h (1 Bft) SW 229 0 min 0,000 mm 0,0 UV-I 0 W/m 7,7 C 14,0 C 4,0 km/h (1 Bft) 0,00 %
17.05.2015 04:15 14,0 C 66 % 1022,4 hPa 0,0 l/m 0,0 km/h (0 Bft) S-SW 202 0 min 0,000 mm 0,0 UV-I 0 W/m 7,7 C 14,0 C 0,0 km/h (0 Bft) 0,00 %
17.05.2015 04:30 13,8 C 67 % 1022,4 hPa 0,0 l/m 0,0 km/h (0 Bft) W-SW 248 0 min 0,000 mm 0,0 UV-I 0 W/m 7,8 C 13,8 C 0,0 km/h (0 Bft) 0,00 %
17.05.2015 04:45 13,6 C 66 % 1022,7 hPa 0,0 l/m 2,2 km/h (1 Bft) W-SW 251 0 min 0,000 mm 0,0 UV-I 0 W/m 7,4 C 13,6 C 4,0 km/h (1 Bft) 0,00 %
17.05.2015 05:00 13,7 C 66 % 1023,0 hPa 0,0 l/m 3,2 km/h (1 Bft) S-SW 193 0 min 0,000 mm 0,0 UV-I 0 W/m 7,5 C 13,7 C 4,0 km/h (1 Bft) 0,00 %
17.05.2015 05:15 13,6 C 66 % 1022,8 hPa 0,0 l/m 6,5 km/h (2 Bft) W 274 0 min 0,000 mm 0,0 UV-I 0 W/m 7,4 C 13,6 C 11,9 km/h (2 Bft) 0,00 %
17.05.2015 05:30 13,6 C 65 % 1022,9 hPa 0,0 l/m 1,4 km/h (1 Bft) W-SW 255 0 min 0,000 mm 0,0 UV-I 0 W/m 7,1 C 13,6 C 4,0 km/h (1 Bft) 0,00 %
17.05.2015 05:45 13,6 C 65 % 1023,0 hPa 0,0 l/m 0,0 km/h (0 Bft) S 169 0 min 0,000 mm 0,0 UV-I 1 W/m 7,1 C 13,6 C 0,0 km/h (0 Bft) 0,00 %
17.05.2015 06:00 13,4 C 66 % 1023,1 hPa 0,0 l/m 0,7 km/h (0 Bft) S-SW 212 0 min 0,000 mm 0,0 UV-I 5 W/m 7,2 C 13,4 C 4,0 km/h (1 Bft) 0,00 %
17.05.2015 06:15 13,4 C 68 % 1023,3 hPa 0,0 l/m 4,3 km/h (1 Bft) SW 226 0 min 0,000 mm 0,0 UV-I 8 W/m 7,6 C 13,4 C 7,9 km/h (2 Bft) 0,00 %
17.05.2015 06:30 13,3 C 69 % 1023,6 hPa 0,0 l/m 2,2 km/h (1 Bft) SW 225 0 min 0,000 mm 0,0 UV-I 27 W/m 7,7 C 13,3 C 4,0 km/h (1 Bft) 0,00 %
17.05.2015 06:45 13,2 C 69 % 1023,7 hPa 0,0 l/m 0,4 km/h (0 Bft) W-SW 256 0 min 0,000 mm 0,0 UV-I 34 W/m 7,6 C 13,2 C 4,0 km/h (1 Bft) 0,00 %
17.05.2015 07:00 13,2 C 69 % 1023,7 hPa 0,0 l/m 2,2 km/h (1 Bft) W-SW 255 0 min 0,000 mm 0,0 UV-I 51 W/m 7,6 C 13,2 C 4,0 km/h (1 Bft) 0,00 %
17.05.2015 07:15 13,2 C 71 % 1023,8 hPa 0,0 l/m 0,0 km/h (0 Bft) SW 232 0 min 0,000 mm 0,0 UV-I 54 W/m 8,1 C 13,2 C 0,0 km/h (0 Bft) 0,00 %
17.05.2015 07:30 13,2 C 72 % 1024,0 hPa 0,0 l/m 0,0 km/h (0 Bft) S 176 0 min 0,000 mm 0,0 UV-I 55 W/m 8,3 C 13,2 C 0,0 km/h (0 Bft) 0,00 %
17.05.2015 07:45 13,2 C 73 % 1024,0 hPa 0,0 l/m 0,0 km/h (0 Bft) S-SW 196 0 min 0,000 mm 1,0 UV-I 62 W/m 8,5 C 13,2 C 0,0 km/h (0 Bft) 0,00 %
17.05.2015 08:00 13,3 C 74 % 1024,1 hPa 0,0 l/m 2,9 km/h (1 Bft) W-NW 290 0 min 0,000 mm 1,0 UV-I 106 W/m 8,8 C 13,3 C 4,0 km/h (1 Bft) 0,00 %
17.05.2015 08:15 13,3 C 75 % 1024,0 hPa 0,0 l/m 0,0 km/h (0 Bft) S-SW 202 0 min 0,000 mm 1,0 UV-I 74 W/m 9,0 C 13,3 C 0,0 km/h (0 Bft) 0,00 %
17.05.2015 08:30 13,4 C 75 % 1024,1 hPa 0,0 l/m 0,0 km/h (0 Bft) SW 222 0 min 0,000 mm 1,0 UV-I 137 W/m 9,1 C 13,4 C 0,0 km/h (0 Bft) 0,00 %
17.05.2015 08:45 13,7 C 74 % 1024,3 hPa 0,0 l/m 0,7 km/h (0 Bft) S-SW 195 0 min 0,000 mm 1,0 UV-I 109 W/m 9,2 C 13,7 C 4,0 km/h (1 Bft) 0,00 %
17.05.2015 09:00 13,4 C 77 % 1024,5 hPa 0,0 l/m 0,0 km/h (0 Bft) NW 307 0 min 0,000 mm 1,0 UV-I 86 W/m 9,5 C 13,4 C 0,0 km/h (0 Bft) 0,00 %
17.05.2015 09:15 13,3 C 77 % 1024,5 hPa 0,0 l/m 0,0 km/h (0 Bft) S 189 0 min 0,000 mm 1,0 UV-I 134 W/m 9,4 C 13,3 C 0,0 km/h (0 Bft) 0,00 %
17.05.2015 09:30 13,7 C 76 % 1024,3 hPa 0,0 l/m 0,0 km/h (0 Bft) W-SW 250 0 min 0,000 mm 2,0 UV-I 207 W/m 9,5 C 13,7 C 0,0 km/h (0 Bft) 0,00 %
17.05.2015 09:45 14,2 C 73 % 1024,1 hPa 0,0 l/m 0,4 km/h (0 Bft) S 191 0 min 0,000 mm 1,0 UV-I 171 W/m 9,4 C 14,2 C 4,0 km/h (1 Bft) 0,00 %
17.05.2015 10:00 13,6 C 75 % 1024,3 hPa 0,0 l/m 0,0 km/h (0 Bft) S-SO 158 0 min 0,000 mm 1,0 UV-I 114 W/m 9,3 C 13,6 C 0,0 km/h (0 Bft) 0,00 %
17.05.2015 10:15 13,4 C 75 % 1024,4 hPa 0,0 l/m 0,0 km/h (0 Bft) S 180 0 min 0,000 mm 1,0 UV-I 130 W/m 9,1 C 13,4 C 0,0 km/h (0 Bft) 0,00 %
17.05.2015 10:30 13,7 C 74 % 1024,4 hPa 0,0 l/m 1,8 km/h (1 Bft) W-NW 288 0 min 0,000 mm 1,0 UV-I 158 W/m 9,2 C 13,7 C 4,0 km/h (1 Bft) 0,00 %
17.05.2015 10:45 13,8 C 72 % 1024,2 hPa 0,0 l/m 4,3 km/h (1 Bft) S-SW 205 0 min 0,000 mm 1,0 UV-I 134 W/m 8,8 C 13,8 C 7,9 km/h (2 Bft) 0,00 %
17.05.2015 11:00 13,7 C 73 % 1024,3 hPa 0,0 l/m 0,0 km/h (0 Bft) S 179 0 min 0,000 mm 1,0 UV-I 120 W/m 8,9 C 13,7 C 0,0 km/h (0 Bft) 0,00 %
17.05.2015 11:15 13,8 C 72 % 1024,1 hPa 0,0 l/m 1,8 km/h (1 Bft) S-SO 156 0 min 0,000 mm 2,0 UV-I 213 W/m 8,8 C 13,8 C 4,0 km/h (1 Bft) 0,00 %
17.05.2015 11:30 14,3 C 69 % 1024,0 hPa 0,0 l/m 4,0 km/h (1 Bft) W-SW 256 0 min 0,000 mm 2,0 UV-I 326 W/m 8,7 C 14,3 C 7,9 km/h (2 Bft) 0,00 %
17.05.2015 11:45 15,2 C 66 % 1023,9 hPa 0,0 l/m 1,8 km/h (1 Bft) W-SW 252 0 min 0,000 mm 3,0 UV-I 400 W/m 8,9 C 15,2 C 4,0 km/h (1 Bft) 0,00 %
17.05.2015 12:00 16,0 C 63 % 1023,2 hPa 0,0 l/m 0,7 km/h (0 Bft) S 184 0 min 0,000 mm 2,0 UV-I 339 W/m 9,0 C 16,0 C 4,0 km/h (1 Bft) 0,00 %
17.05.2015 12:15 15,4 C 64 % 1023,9 hPa 0,0 l/m 0,0 km/h (0 Bft) SW 216 0 min 0,000 mm 2,0 UV-I 248 W/m 8,6 C 15,4 C 0,0 km/h (0 Bft) 0,00 %
17.05.2015 12:30 15,2 C 65 % 1023,9 hPa 0,0 l/m 0,0 km/h (0 Bft) S-SW 192 0 min 0,000 mm 2,0 UV-I 220 W/m 8,7 C 15,2 C 0,0 km/h (0 Bft) 0,00 %
17.05.2015 12:45 15,3 C 63 % 1023,6 hPa 0,0 l/m 1,4 km/h (1 Bft) SW 233 0 min 0,000 mm 2,0 UV-I 306 W/m 8,3 C 15,3 C 4,0 km/h (1 Bft) 0,00 %
17.05.2015 13:00 16,2 C 60 % 1023,5 hPa 0,0 l/m 0,0 km/h (0 Bft) S 176 0 min 0,000 mm 4,0 UV-I 454 W/m 8,4 C 16,2 C 0,0 km/h (0 Bft) 0,00 %
17.05.2015 13:15 16,7 C 60 % 1023,2 hPa 0,0 l/m 1,4 km/h (1 Bft) SO 131 15 min 0,000 mm 3,0 UV-I 495 W/m 8,9 C 16,7 C 4,0 km/h (1 Bft) 0,00 %
17.05.2015 13:30 17,0 C 62 % 1023,1 hPa 0,0 l/m 1,4 km/h (1 Bft) S-SW 204 0 min 0,000 mm 2,0 UV-I 406 W/m 9,7 C 17,0 C 4,0 km/h (1 Bft) 0,00 %
17.05.2015 13:45 16,6 C 63 % 1023,0 hPa 0,0 l/m 0,7 km/h (0 Bft) W-NW 297 0 min 0,000 mm 1,0 UV-I 125 W/m 9,5 C 16,6 C 4,0 km/h (1 Bft) 0,00 %
17.05.2015 14:00 15,6 C 67 % 1022,9 hPa 0,0 l/m 0,4 km/h (0 Bft) O-NO 70 0 min 0,000 mm 1,0 UV-I 213 W/m 9,5 C 15,6 C 4,0 km/h (1 Bft) 0,00 %
17.05.2015 14:15 15,9 C 67 % 1022,6 hPa 0,0 l/m 0,0 km/h (0 Bft) SO 142 0 min 0,000 mm 1,0 UV-I 177 W/m 9,8 C 15,9 C 0,0 km/h (0 Bft) 0,00 %
17.05.2015 14:30 15,4 C 70 % 1022,9 hPa 0,0 l/m 0,4 km/h (0 Bft) S-SW 192 0 min 0,000 mm 1,0 UV-I 77 W/m 10,0 C 15,4 C 4,0 km/h (1 Bft) 0,00 %
17.05.2015 14:45 15,0 C 71 % 1023,1 hPa 0,0 l/m 0,0 km/h (0 Bft) S-SW 193 0 min 0,000 mm 0,0 UV-I 50 W/m 9,8 C 15,0 C 0,0 km/h (0 Bft) 0,00 %
17.05.2015 15:00 14,7 C 72 % 1022,9 hPa 0,0 l/m 0,4 km/h (0 Bft) W-SW 254 0 min 0,000 mm 1,0 UV-I 132 W/m 9,7 C 14,7 C 4,0 km/h (1 Bft) 0,00 %
17.05.2015 15:15 15,0 C 69 % 1022,8 hPa 0,0 l/m 0,0 km/h (0 Bft) S-SW 200 0 min 0,000 mm 1,0 UV-I 114 W/m 9,4 C 15,0 C 0,0 km/h (0 Bft) 0,00 %
17.05.2015 15:30 15,4 C 66 % 1022,6 hPa 0,0 l/m 0,0 km/h (0 Bft) S-SW 202 0 min 0,000 mm 1,0 UV-I 189 W/m 9,1 C 15,4 C 0,0 km/h (0 Bft) 0,00 %
17.05.2015 15:45 16,1 C 62 % 1022,3 hPa 0,0 l/m 4,3 km/h (1 Bft) W-SW 255 15 min 0,000 mm 3,0 UV-I 431 W/m 8,8 C 16,1 C 7,9 km/h (2 Bft) 0,00 %
17.05.2015 16:00 16,7 C 61 % 1022,3 hPa 0,0 l/m 0,0 km/h (0 Bft) S-SW 205 0 min 0,000 mm 1,0 UV-I 200 W/m 9,1 C 16,7 C 0,0 km/h (0 Bft) 0,00 %
17.05.2015 16:15 16,3 C 65 % 1022,1 hPa 0,0 l/m 0,0 km/h (0 Bft) W-SW 256 0 min 0,000 mm 1,0 UV-I 167 W/m 9,7 C 16,3 C 0,0 km/h (0 Bft) 0,00 %
17.05.2015 16:30 16,0 C 66 % 1022,1 hPa 0,0 l/m 0,0 km/h (0 Bft) SW 227 0 min 0,000 mm 1,0 UV-I 156 W/m 9,7 C 16,0 C 0,0 km/h (0 Bft) 0,00 %
17.05.2015 16:45 16,3 C 63 % 1021,9 hPa 0,0 l/m 0,0 km/h (0 Bft) S 179 0 min 0,000 mm 2,0 UV-I 279 W/m 9,2 C 16,3 C 0,0 km/h (0 Bft) 0,00 %
17.05.2015 17:00 16,9 C 61 % 1021,5 hPa 0,0 l/m 0,0 km/h (0 Bft) W-SW 246 0 min 0,000 mm 2,0 UV-I 229 W/m 9,3 C 16,9 C 0,0 km/h (0 Bft) 0,00 %
17.05.2015 17:15 16,5 C 62 % 1021,6 hPa 0,0 l/m 0,7 km/h (0 Bft) SW 236 0 min 0,000 mm 1,0 UV-I 163 W/m 9,2 C 16,5 C 4,0 km/h (1 Bft) 0,00 %
17.05.2015 17:30 16,5 C 64 % 1021,7 hPa 0,0 l/m 0,0 km/h (0 Bft) S-SW 197 0 min 0,000 mm 1,0 UV-I 132 W/m 9,7 C 16,5 C 0,0 km/h (0 Bft) 0,00 %
17.05.2015 17:45 16,1 C 64 % 1021,6 hPa 0,0 l/m 0,0 km/h (0 Bft) SW 216 0 min 0,000 mm 1,0 UV-I 92 W/m 9,3 C 16,1 C 0,0 km/h (0 Bft) 0,00 %
17.05.2015 18:00 15,9 C 66 % 1021,5 hPa 0,0 l/m 0,0 km/h (0 Bft) S-SW 192 0 min 0,000 mm 1,0 UV-I 127 W/m 9,6 C 15,9 C 0,0 km/h (0 Bft) 0,00 %
17.05.2015 18:15 16,3 C 65 % 1021,4 hPa 0,0 l/m 0,0 km/h (0 Bft) S 184 15 min 0,000 mm 1,0 UV-I 218 W/m 9,7 C 16,3 C 0,0 km/h (0 Bft) 0,00 %
17.05.2015 18:30 16,8 C 64 % 1021,2 hPa 0,0 l/m 0,0 km/h (0 Bft) S 187 15 min 0,000 mm 1,0 UV-I 238 W/m 10,0 C 16,8 C 0,0 km/h (0 Bft) 0,00 %
17.05.2015 18:45 17,7 C 58 % 1021,1 hPa 0,0 l/m 0,0 km/h (0 Bft) S-SW 202 15 min 0,000 mm 1,0 UV-I 458 W/m 9,3 C 17,7 C 0,0 km/h (0 Bft) 0,00 %
17.05.2015 19:00 17,7 C 59 % 1020,9 hPa 0,0 l/m 0,0 km/h (0 Bft) S 178 15 min 0,000 mm 1,0 UV-I 372 W/m 9,6 C 17,7 C 0,0 km/h (0 Bft) 0,00 %
17.05.2015 19:15 17,8 C 60 % 1020,8 hPa 0,0 l/m 0,4 km/h (0 Bft) SW 220 15 min 0,000 mm 1,0 UV-I 351 W/m 9,9 C 17,8 C 4,0 km/h (1 Bft) 0,00 %
17.05.2015 19:30 17,5 C 60 % 1020,6 hPa 0,0 l/m 0,0 km/h (0 Bft) S-SW 194 15 min 0,000 mm 1,0 UV-I 251 W/m 9,6 C 17,5 C 0,0 km/h (0 Bft) 0,00 %
17.05.2015 19:45 17,0 C 62 % 1020,9 hPa 0,0 l/m 0,0 km/h (0 Bft) S 184 15 min 0,000 mm 0,0 UV-I 166 W/m 9,7 C 17,0 C 0,0 km/h (0 Bft) 0,00 %
17.05.2015 20:00 16,3 C 67 % 1020,9 hPa 0,0 l/m 0,0 km/h (0 Bft) S 182 15 min 0,000 mm 0,0 UV-I 48 W/m 10,2 C 16,3 C 0,0 km/h (0 Bft) 0,00 %
17.05.2015 20:15 14,9 C 73 % 1021,3 hPa 0,0 l/m 0,0 km/h (0 Bft) S 180 0 min 0,000 mm 0,0 UV-I 20 W/m 10,1 C 14,9 C 0,0 km/h (0 Bft) 0,00 %
17.05.2015 20:30 13,8 C 81 % 1021,5 hPa 0,0 l/m 0,0 km/h (0 Bft) S-SO 158 0 min 0,000 mm 0,0 UV-I 2 W/m 10,6 C 13,8 C 0,0 km/h (0 Bft) 0,00 %
17.05.2015 20:45 12,9 C 83 % 1021,5 hPa 0,0 l/m 0,0 km/h (0 Bft) S 184 0 min 0,000 mm 0,0 UV-I 0 W/m 10,1 C 12,9 C 0,0 km/h (0 Bft) 0,00 %
17.05.2015 21:00 12,1 C 85 % 1021,8 hPa 0,0 l/m 0,0 km/h (0 Bft) S 180 0 min 0,000 mm 0,0 UV-I 0 W/m 9,7 C 12,1 C 0,0 km/h (0 Bft) 0,00 %
17.05.2015 21:15 11,7 C 87 % 1022,1 hPa 0,0 l/m 0,0 km/h (0 Bft) S 187 0 min 0,000 mm 0,0 UV-I 0 W/m 9,6 C 11,7 C 0,0 km/h (0 Bft) 0,00 %
17.05.2015 21:30 11,4 C 89 % 1022,2 hPa 0,0 l/m 0,0 km/h (0 Bft) S 187 0 min 0,000 mm 0,0 UV-I 0 W/m 9,7 C 11,4 C 0,0 km/h (0 Bft) 0,00 %
17.05.2015 21:45 11,1 C 90 % 1022,2 hPa 0,0 l/m 0,0 km/h (0 Bft) S 183 0 min 0,000 mm 0,0 UV-I 0 W/m 9,5 C 11,1 C 0,0 km/h (0 Bft) 0,00 %
17.05.2015 22:00 10,8 C 91 % 1022,4 hPa 0,0 l/m 0,0 km/h (0 Bft) S 184 0 min 0,000 mm 0,0 UV-I 0 W/m 9,4 C 10,8 C 0,0 km/h (0 Bft) 0,00 %
17.05.2015 22:15 10,7 C 91 % 1022,2 hPa 0,0 l/m 0,0 km/h (0 Bft) S 189 0 min 0,000 mm 0,0 UV-I 0 W/m 9,3 C 10,7 C 0,0 km/h (0 Bft) 0,00 %
17.05.2015 22:30 10,6 C 92 % 1022,0 hPa 0,0 l/m 0,0 km/h (0 Bft) S 186 0 min 0,000 mm 0,0 UV-I 0 W/m 9,4 C 10,6 C 0,0 km/h (0 Bft) 0,00 %
17.05.2015 22:45 10,4 C 93 % 1022,0 hPa 0,0 l/m 0,0 km/h (0 Bft) S 180 0 min 0,000 mm 0,0 UV-I 0 W/m 9,3 C 10,4 C 0,0 km/h (0 Bft) 0,00 %
17.05.2015 23:00 10,1 C 93 % 1022,1 hPa 0,0 l/m 0,0 km/h (0 Bft) S 186 0 min 0,000 mm 0,0 UV-I 0 W/m 9,0 C 10,1 C 0,0 km/h (0 Bft) 0,00 %
17.05.2015 23:15 9,9 C 94 % 1022,1 hPa 0,0 l/m 0,0 km/h (0 Bft) S 185 0 min 0,000 mm 0,0 UV-I 0 W/m 9,0 C 9,9 C 0,0 km/h (0 Bft) 0,00 %
17.05.2015 23:30 9,7 C 95 % 1021,8 hPa 0,0 l/m 0,0 km/h (0 Bft) S 185 0 min 0,000 mm 0,0 UV-I 0 W/m 8,9 C 9,7 C 0,0 km/h (0 Bft) 0,00 %
17.05.2015 23:45 9,8 C 96 % 1021,8 hPa 0,0 l/m 0,0 km/h (0 Bft) S 190 0 min 0,000 mm 0,0 UV-I 0 W/m 9,2 C 9,8 C 0,0 km/h (0 Bft) 0,00 %
_ Min-Zeit 23:30 18:45 19:30 - 00:30 - - - - - - 05:30 23:30 00:30 00:00
Minimum _ 9,7 C 58 % 1020,6 hPa - 0,0 km/h (0 Bft) - - - - - - 7,1 C 9,7 C 0,0 km/h (0 Bft) 0,00 %
_ Max-Zeit 19:15 23:45 09:00 00:00 02:45 - - 13:15 00:00 13:00 13:15 20:30 19:15 02:45 00:00
Maximum _ 17,8 C 96 % 1024,5 hPa 0,0 l/m 7,9 km/h
W-SW (2 Bft)
- - 15 min 0,000 mm 4,0 UV-I 495 W/m 10,6 C 17,8 C 11,9 km/h
W-SW (2 Bft)
0,00 %
Durchschnitt _ 14,2 C 71 % 1022,6 hPa #0,0 l/m 0,8 km/h (0 Bft) W-SW - #2:30 h #0,000 mm 1,4 UV-I 176 W/m 8,9 C 14,2 C 2,1 km/h (1 Bft) 0,00 %